EZY365G EGCC-EGAC

Flight info

Callsign EZY365G
Flight time 0h 30m
Altitude 24000
Route EKLAD Y53 WAL M146 ERDUV Z198 MASOP M148 MAGEE
Aircraft A320/M-SDE3FGHIRWY/LB1

Departure

Time 2026-04-25 20:00
Airport Manchester Airport (EGCC)

Arrival

Time 2026-04-25 20:30
Airport George Best Belfast City Airport (EGAC)
Time Latitude Longitude Altitude Speed Heading
2026-04-25 19:37 53.35931 -2.27523 255 ft 0 kts 97°
2026-04-25 19:49 53.35931 -2.27524 255 ft 0 kts 97°
2026-04-25 19:51 53.35933 -2.27555 255 ft 4 kts 97°
2026-04-25 19:51 53.35937 -2.27600 255 ft 4 kts 106°
2026-04-25 19:51 53.35947 -2.27634 255 ft 4 kts 160°
2026-04-25 19:52 53.35954 -2.27637 255 ft 0 kts 185°
2026-04-25 19:55 53.35912 -2.27644 255 ft 15 kts 185°
2026-04-25 19:55 53.35787 -2.27663 255 ft 20 kts 185°
2026-04-25 19:55 53.35680 -2.27604 256 ft 16 kts 144°
2026-04-25 19:55 53.35590 -2.27485 256 ft 11 kts 141°
2026-04-25 19:56 53.35571 -2.27460 256 ft 0 kts 141°
2026-04-25 19:56 53.35571 -2.27461 256 ft 0 kts 141°
2026-04-25 19:57 53.35564 -2.27451 256 ft 5 kts 141°
2026-04-25 19:57 53.35508 -2.27376 255 ft 14 kts 141°
2026-04-25 19:58 53.35425 -2.27264 254 ft 18 kts 141°
2026-04-25 19:58 53.35321 -2.27195 247 ft 17 kts 188°
2026-04-25 19:58 53.35187 -2.27239 245 ft 22 kts 191°
2026-04-25 19:58 53.35042 -2.27290 242 ft 19 kts 197°
2026-04-25 19:59 53.34933 -2.27477 236 ft 33 kts 231°
2026-04-25 19:59 53.34642 -2.28079 230 ft 101 kts 231°
2026-04-25 19:59 53.34074 -2.29255 221 ft 156 kts 231°
2026-04-25 19:59 53.33327 -2.30784 596 ft 171 kts 233°
2026-04-25 20:00 53.32581 -2.32342 1297 ft 172 kts 229°
2026-04-25 20:00 53.32338 -2.32853 1524 ft 173 kts 229°
2026-04-25 20:00 53.31332 -2.36091 2205 ft 209 kts 255°
2026-04-25 20:00 53.31224 -2.38647 2509 ft 235 kts 274°
2026-04-25 20:01 53.31901 -2.44456 3778 ft 264 kts 271°
2026-04-25 20:01 53.31793 -2.47532 4654 ft 268 kts 259°
2026-04-25 20:01 53.31298 -2.50536 5193 ft 269 kts 250°
2026-04-25 20:02 53.30736 -2.53513 6207 ft 269 kts 252°
2026-04-25 20:02 53.30191 -2.56513 7147 ft 271 kts 256°
2026-04-25 20:02 53.30101 -2.59668 7920 ft 278 kts 280°
2026-04-25 20:02 53.30806 -2.62690 8763 ft 282 kts 298°
2026-04-25 20:03 53.31764 -2.65573 9659 ft 285 kts 298°
2026-04-25 20:03 53.32738 -2.68482 10481 ft 290 kts 298°
2026-04-25 20:03 53.33759 -2.71531 10803 ft 313 kts 298°
2026-04-25 20:03 53.34852 -2.74817 11223 ft 329 kts 298°
2026-04-25 20:04 53.35974 -2.78203 11928 ft 335 kts 298°
2026-04-25 20:04 53.37107 -2.81632 12686 ft 339 kts 298°
2026-04-25 20:04 53.37866 -2.83930 13198 ft 341 kts 298°
2026-04-25 20:04 53.39411 -2.88620 14199 ft 346 kts 298°
2026-04-25 20:05 53.40575 -2.92171 14877 ft 349 kts 298°
2026-04-25 20:05 53.41349 -2.94541 15339 ft 351 kts 298°
2026-04-25 20:05 53.42526 -2.98137 16044 ft 353 kts 298°
2026-04-25 20:05 53.44114 -3.02985 17004 ft 356 kts 298°
2026-04-25 20:06 53.44905 -3.05403 17465 ft 357 kts 298°
2026-04-25 20:06 53.46104 -3.09068 18151 ft 360 kts 298°
2026-04-25 20:06 53.47308 -3.12761 18788 ft 362 kts 297°
2026-04-25 20:06 53.48519 -3.16484 19358 ft 365 kts 297°
2026-04-25 20:07 53.49738 -3.20240 19921 ft 367 kts 297°
2026-04-25 20:07 53.50961 -3.24019 20480 ft 370 kts 297°
2026-04-25 20:07 53.52196 -3.27834 21028 ft 373 kts 297°
2026-04-25 20:07 53.53441 -3.31675 21559 ft 376 kts 297°
2026-04-25 20:08 53.54694 -3.35551 22086 ft 379 kts 297°
2026-04-25 20:08 53.55953 -3.39463 22617 ft 382 kts 297°
2026-04-25 20:08 53.57219 -3.43403 23134 ft 384 kts 297°
2026-04-25 20:08 53.58633 -3.47241 23639 ft 388 kts 304°
2026-04-25 20:09 53.60200 -3.50967 24066 ft 392 kts 304°
2026-04-25 20:09 53.61802 -3.54763 24198 ft 403 kts 304°
2026-04-25 20:09 53.63452 -3.58675 24245 ft 416 kts 304°
2026-04-25 20:09 53.65153 -3.62715 24242 ft 429 kts 304°
2026-04-25 20:10 53.66907 -3.66882 24237 ft 441 kts 304°
2026-04-25 20:10 53.68701 -3.71154 24251 ft 452 kts 304°
2026-04-25 20:10 53.70535 -3.75536 24233 ft 461 kts 304°
2026-04-25 20:10 53.72394 -3.79998 24226 ft 468 kts 303°
2026-04-25 20:11 53.74268 -3.84508 24223 ft 470 kts 303°
2026-04-25 20:11 53.76144 -3.89028 24239 ft 470 kts 303°
2026-04-25 20:11 53.78025 -3.93557 24241 ft 470 kts 303°
2026-04-25 20:11 53.79898 -3.98080 24242 ft 470 kts 303°
2026-04-25 20:12 53.81775 -4.02629 24226 ft 470 kts 303°
2026-04-25 20:12 53.83643 -4.07173 24236 ft 470 kts 303°
2026-04-25 20:12 53.85522 -4.11711 24232 ft 471 kts 306°
2026-04-25 20:12 53.86943 -4.14479 24223 ft 472 kts 314°
2026-04-25 20:13 53.90545 -4.18766 24228 ft 477 kts 333°
2026-04-25 20:13 53.93629 -4.20878 24236 ft 479 kts 337°
2026-04-25 20:13 53.96739 -4.22915 24215 ft 480 kts 337°
2026-04-25 20:13 53.99813 -4.24930 24216 ft 480 kts 337°
2026-04-25 20:14 54.02974 -4.27012 24212 ft 481 kts 336°
2026-04-25 20:14 54.06092 -4.29077 24211 ft 481 kts 336°
2026-04-25 20:14 54.09213 -4.31154 24210 ft 482 kts 336°
2026-04-25 20:14 54.12329 -4.33254 24050 ft 478 kts 334°
2026-04-25 20:15 54.15134 -4.36019 23826 ft 456 kts 320°
2026-04-25 20:15 54.17338 -4.39720 23563 ft 436 kts 306°
2026-04-25 20:15 54.19080 -4.43853 23138 ft 424 kts 303°
2026-04-25 20:15 54.20763 -4.47937 22597 ft 417 kts 303°
2026-04-25 20:16 54.22414 -4.51970 22066 ft 411 kts 303°
2026-04-25 20:16 54.24037 -4.55949 21536 ft 401 kts 303°
2026-04-25 20:16 54.25596 -4.59774 21010 ft 383 kts 303°
2026-04-25 20:16 54.27067 -4.63382 20565 ft 367 kts 303°
2026-04-25 20:17 54.28495 -4.66889 20121 ft 352 kts 302°
2026-04-25 20:17 54.29870 -4.70270 19692 ft 342 kts 302°
2026-04-25 20:17 54.31223 -4.73610 19241 ft 341 kts 302°
2026-04-25 20:17 54.32571 -4.76946 18825 ft 340 kts 302°
2026-04-25 20:18 54.33913 -4.80270 18395 ft 339 kts 302°
2026-04-25 20:18 54.35255 -4.83593 17909 ft 338 kts 302°
2026-04-25 20:18 54.36593 -4.86904 17432 ft 338 kts 302°
2026-04-25 20:18 54.37927 -4.90211 16963 ft 337 kts 302°
2026-04-25 20:19 54.39263 -4.93522 16503 ft 337 kts 302°
2026-04-25 20:19 54.40596 -4.96832 16051 ft 337 kts 302°
2026-04-25 20:19 54.41925 -5.00144 15603 ft 337 kts 302°
2026-04-25 20:19 54.43252 -5.03453 15164 ft 337 kts 302°
2026-04-25 20:20 54.44579 -5.06769 14723 ft 336 kts 302°
2026-04-25 20:20 54.45910 -5.10075 14278 ft 336 kts 303°
2026-04-25 20:20 54.47246 -5.13377 13830 ft 336 kts 303°
2026-04-25 20:20 54.48589 -5.16693 13124 ft 339 kts 303°
2026-04-25 20:21 54.49931 -5.19998 12340 ft 334 kts 304°
2026-04-25 20:21 54.51472 -5.22959 11572 ft 332 kts 318°
2026-04-25 20:21 54.53269 -5.25401 10836 ft 327 kts 320°
2026-04-25 20:21 54.55045 -5.27796 10595 ft 318 kts 320°
2026-04-25 20:22 54.56743 -5.30096 10371 ft 303 kts 320°
2026-04-25 20:22 54.57827 -5.31569 10016 ft 298 kts 320°
2026-04-25 20:22 54.59981 -5.34507 9145 ft 293 kts 320°
2026-04-25 20:22 54.61567 -5.36675 8485 ft 289 kts 320°
2026-04-25 20:23 54.63132 -5.38818 7828 ft 286 kts 320°
2026-04-25 20:23 54.64682 -5.40944 7191 ft 283 kts 320°
2026-04-25 20:23 54.66220 -5.43056 6562 ft 280 kts 320°
2026-04-25 20:23 54.67738 -5.45132 6057 ft 279 kts 320°
2026-04-25 20:24 54.69260 -5.47217 5625 ft 279 kts 320°
2026-04-25 20:24 54.70771 -5.49290 5212 ft 278 kts 320°
2026-04-25 20:24 54.72268 -5.51349 4679 ft 272 kts 321°
2026-04-25 20:24 54.73739 -5.53374 4200 ft 271 kts 321°
2026-04-25 20:25 54.75213 -5.55403 3841 ft 268 kts 321°
2026-04-25 20:25 54.76618 -5.57384 3771 ft 253 kts 315°
2026-04-25 20:25 54.77507 -5.59854 3686 ft 237 kts 283°
2026-04-25 20:25 54.77516 -5.62587 3607 ft 225 kts 254°
2026-04-25 20:26 54.77066 -5.65168 3530 ft 223 kts 250°
2026-04-25 20:26 54.76560 -5.67639 3454 ft 213 kts 249°
2026-04-25 20:26 54.75938 -5.69908 3253 ft 208 kts 231°
2026-04-25 20:26 54.74875 -5.71562 2996 ft 206 kts 214°
2026-04-25 20:27 54.73698 -5.72975 2732 ft 206 kts 213°
2026-04-25 20:27 54.72535 -5.74372 2452 ft 200 kts 213°
2026-04-25 20:27 54.71413 -5.75722 2203 ft 192 kts 213°
2026-04-25 20:27 54.70365 -5.76985 1956 ft 175 kts 213°
2026-04-25 20:28 54.69402 -5.78144 1706 ft 164 kts 213°
2026-04-25 20:28 54.68506 -5.79224 1505 ft 149 kts 213°
2026-04-25 20:28 54.67675 -5.80229 1289 ft 143 kts 214°
2026-04-25 20:28 54.66872 -5.81211 1067 ft 141 kts 214°
2026-04-25 20:29 54.66069 -5.82167 902 ft 140 kts 213°
2026-04-25 20:29 54.65268 -5.83122 727 ft 141 kts 213°
2026-04-25 20:29 54.64461 -5.84079 534 ft 141 kts 214°
2026-04-25 20:29 54.63659 -5.85045 333 ft 140 kts 214°
2026-04-25 20:30 54.62859 -5.85998 155 ft 140 kts 214°
2026-04-25 20:30 54.62074 -5.86933 31 ft 128 kts 214°
2026-04-25 20:30 54.61541 -5.87571 22 ft 51 kts 214°
2026-04-25 20:30 54.61358 -5.87789 21 ft 7 kts 214°
2026-04-25 20:31 54.61312 -5.87796 21 ft 5 kts 163°
2026-04-25 20:31 54.61296 -5.87760 21 ft 4 kts 123°
2026-04-25 20:31 54.61277 -5.87711 23 ft 5 kts 123°
2026-04-25 20:31 54.61258 -5.87650 23 ft 7 kts 108°
2026-04-25 20:32 54.61280 -5.87568 23 ft 9 kts 40°
2026-04-25 20:32 54.61343 -5.87492 23 ft 13 kts 35°
2026-04-25 20:32 54.61407 -5.87390 23 ft 12 kts 56°
2026-04-25 20:32 54.61475 -5.87290 23 ft 14 kts 34°
2026-04-25 20:33 54.61542 -5.87197 23 ft 10 kts 64°
2026-04-25 20:33 54.61530 -5.87164 23 ft 3 kts 173°
2026-04-25 20:33 54.61506 -5.87149 23 ft 2 kts 155°
2026-04-25 20:33 54.61503 -5.87146 26 ft 0 kts 155°
2026-04-25 20:34 54.61501 -5.87145 25 ft 0 kts 155°